• In Netherlands
  • List of Countries
  • For 7 days
  • Water Temperature
  • Satellite Maps
  • Weather Map
  • Weather Widgets
  • user-avatar
    Login

    Hourly Weather Porto-Novo

    Today, 22 July, Saturday

    Time Temperature Precipitation Wind Pressure Humidity
    00:00 +27°C° 0 mm 4 mps 759 mmHg 89%
    01:00 +27°C° 1.8 mm 5 mps 759 mmHg 90%
    02:00 +27°C° 1.8 mm 5 mps 759 mmHg 90%
    03:00 +26°C° 1.8 mm 5 mps 759 mmHg 90%
    04:00 +26°C° 0.7 mm 5 mps 759 mmHg 90%
    05:00 +26°C° 0.7 mm 5 mps 759 mmHg 90%
    06:00 +26°C° 0 mm 4 mps 759 mmHg 89%
    07:00 +28°C° 0.3 mm 5 mps 759 mmHg 84%
    08:00 +29°C° 0.3 mm 5 mps 760 mmHg 79%
    09:00 +30°C° 0.3 mm 5 mps 760 mmHg 75%
    10:00 +30°C° 0.5 mm 6 mps 760 mmHg 73%
    11:00 +32°C° 0.5 mm 6 mps 760 mmHg 72%
    12:00 +30°C° 0 mm 5 mps 759 mmHg 74%
    13:00 +29°C° 1.1 mm 6 mps 759 mmHg 78%
    14:00 +28°C° 1.1 mm 6 mps 758 mmHg 82%
    15:00 +27°C° 1.1 mm 6 mps 758 mmHg 86%
    16:00 +27°C° 1.3 mm 6 mps 758 mmHg 87%
    17:00 +27°C° 1.3 mm 6 mps 758 mmHg 89%
    18:00 +27°C° 1.3 mm 5 mps 758 mmHg 90%
    19:00 +26°C° 1.9 mm 5 mps 759 mmHg 90%
    20:00 +26°C° 1.9 mm 5 mps 759 mmHg 91%
    21:00 +26°C° 1.9 mm 5 mps 760 mmHg 91%
    22:00 +26°C° 2.2 mm 5 mps 760 mmHg 92%
    23:00 +26°C° 2.2 mm 5 mps 760 mmHg 92%

    Tomorrow, 23 July, Sunday

    Time Temperature Precipitation Wind Pressure Humidity
    00:00 +26°C° 2.2 mm 5 mps 760 mmHg 92%
    01:00 +26°C° 3.3 mm 5 mps 759 mmHg 92%
    02:00 +26°C° 3.3 mm 5 mps 759 mmHg 92%
    03:00 +26°C° 3.3 mm 5 mps 759 mmHg 92%
    04:00 +26°C° 2.1 mm 5 mps 759 mmHg 92%
    05:00 +26°C° 2.1 mm 5 mps 759 mmHg 92%
    06:00 +26°C° 2.1 mm 5 mps 759 mmHg 92%
    07:00 +26°C° 1.6 mm 5 mps 760 mmHg 91%
    08:00 +26°C° 1.6 mm 5 mps 760 mmHg 91%
    09:00 +26°C° 1.6 mm 5 mps 761 mmHg 90%
    10:00 +26°C° 1.4 mm 5 mps 761 mmHg 90%
    11:00 +26°C° 1.4 mm 5 mps 761 mmHg 90%
    12:00 +26°C° 1.4 mm 5 mps 761 mmHg 90%
    13:00 +26°C° 0.6 mm 5 mps 760 mmHg 89%
    14:00 +27°C° 0.6 mm 5 mps 760 mmHg 88%
    15:00 +27°C° 0.6 mm 5 mps 759 mmHg 87%
    16:00 +27°C° 0.4 mm 5 mps 759 mmHg 88%
    17:00 +26°C° 0.4 mm 5 mps 759 mmHg 88%
    18:00 +26°C° 0.4 mm 5 mps 759 mmHg 88%
    19:00 +26°C° 0.1 mm 5 mps 760 mmHg 89%
    20:00 +26°C° 0.1 mm 5 mps 761 mmHg 89%
    21:00 +26°C° 0.1 mm 5 mps 761 mmHg 89%
    22:00 +26°C° 0.1 mm 5 mps 761 mmHg 89%
    23:00 +26°C° 0.1 mm 5 mps 761 mmHg 90%

    Day after tomorrow, 24 July, Monday

    Time Temperature Precipitation Wind Pressure Humidity
    00:00 +25°C° 0.1 mm 4 mps 761 mmHg 90%
    01:00 +25°C° 0.2 mm 4 mps 761 mmHg 90%
    02:00 +25°C° 0.2 mm 4 mps 760 mmHg 90%
    03:00 +25°C° 0.2 mm 4 mps 760 mmHg 90%
    04:00 +25°C° 0.1 mm 4 mps 760 mmHg 90%
    05:00 +25°C° 0.1 mm 4 mps 761 mmHg 90%
    06:00 +25°C° 0.1 mm 4 mps 761 mmHg 90%
    07:00 +26°C° 0.1 mm 4 mps 761 mmHg 89%
    08:00 +26°C° 0.1 mm 4 mps 762 mmHg 87%
    09:00 +26°C° 0.1 mm 5 mps 762 mmHg 86%
    10:00 +27°C° 0.1 mm 5 mps 762 mmHg 82%
    11:00 +28°C° 0.1 mm 5 mps 761 mmHg 78%
    12:00 +29°C° 0.1 mm 5 mps 761 mmHg 74%
    13:00 +29°C° 0.1 mm 5 mps 760 mmHg 73%
    14:00 +29°C° 0.1 mm 5 mps 760 mmHg 72%
    15:00 +29°C° 0.1 mm 5 mps 759 mmHg 71%
    16:00 +28°C° 0 mm 5 mps 759 mmHg 75%
    17:00 +28°C° 0 mm 5 mps 760 mmHg 78%
    18:00 +27°C° 0 mm 5 mps 760 mmHg 81%
    19:00 +26°C° 0 mm 4 mps 760 mmHg 82%
    20:00 +26°C° 0 mm 4 mps 761 mmHg 83%
    21:00 +26°C° 0 mm 4 mps 762 mmHg 84%
    22:00 +26°C° 0 mm 4 mps 762 mmHg 85%
    23:00 +26°C° 0 mm 4 mps 761 mmHg 85%

    25 July, Tuesday

    Time Temperature Precipitation Wind Pressure Humidity
    00:00 +25°C° 0 mm 4 mps 761 mmHg 86%
    01:00 +25°C° 0 mm 4 mps 761 mmHg 85%
    02:00 +25°C° 0 mm 4 mps 760 mmHg 85%
    03:00 +25°C° 0 mm 4 mps 760 mmHg 85%
    04:00 +25°C° 0.1 mm 4 mps 760 mmHg 85%
    05:00 +25°C° 0.1 mm 4 mps 760 mmHg 86%
    06:00 +25°C° 0.1 mm 4 mps 761 mmHg 86%
    07:00 +26°C° 0.1 mm 4 mps 761 mmHg 84%
    08:00 +26°C° 0.1 mm 4 mps 762 mmHg 83%
    09:00 +27°C° 0.1 mm 4 mps 762 mmHg 82%
    10:00 +27°C° 0.1 mm 4 mps 762 mmHg 79%
    11:00 +28°C° 0.1 mm 4 mps 761 mmHg 75%
    12:00 +29°C° 0.1 mm 4 mps 761 mmHg 72%
    13:00 +29°C° 0 mm 4 mps 760 mmHg 71%
    14:00 +29°C° 0 mm 4 mps 760 mmHg 71%
    15:00 +29°C° 0 mm 4 mps 759 mmHg 70%
    16:00 +28°C° 0 mm 4 mps 759 mmHg 74%
    17:00 +28°C° 0 mm 4 mps 759 mmHg 77%
    18:00 +27°C° 0 mm 4 mps 759 mmHg 80%
    19:00 +26°C° 0 mm 4 mps 760 mmHg 82%
    20:00 +26°C° 0 mm 4 mps 761 mmHg 83%
    21:00 +26°C° 0 mm 4 mps 761 mmHg 84%
    22:00 +26°C° 0 mm 4 mps 761 mmHg 85%
    23:00 +25°C° 0 mm 4 mps 761 mmHg 86%

    26 July, Wednesday

    Time Temperature Precipitation Wind Pressure Humidity
    00:00 +25°C° 0 mm 4 mps 761 mmHg 87%
    01:00 +25°C° 0 mm 3 mps 760 mmHg 87%
    02:00 +25°C° 0 mm 3 mps 760 mmHg 86%
    03:00 +25°C° 0 mm 3 mps 759 mmHg 86%
    04:00 +25°C° 0.1 mm 3 mps 759 mmHg 87%
    05:00 +25°C° 0.1 mm 3 mps 760 mmHg 87%
    06:00 +25°C° 0.1 mm 3 mps 760 mmHg 88%
    07:00 +26°C° 0.1 mm 3 mps 761 mmHg 85%
    08:00 +26°C° 0.1 mm 3 mps 761 mmHg 83%
    09:00 +27°C° 0.1 mm 3 mps 762 mmHg 81%
    10:00 +28°C° 0.1 mm 4 mps 761 mmHg 77%
    11:00 +29°C° 0.1 mm 4 mps 761 mmHg 73%
    12:00 +30°C° 0.1 mm 4 mps 760 mmHg 68%
    13:00 +30°C° 0.1 mm 4 mps 759 mmHg 69%
    14:00 +29°C° 0.1 mm 4 mps 759 mmHg 71%
    15:00 +29°C° 0.1 mm 5 mps 758 mmHg 72%
    16:00 +28°C° 0 mm 4 mps 758 mmHg 75%
    17:00 +28°C° 0 mm 4 mps 758 mmHg 78%
    18:00 +27°C° 0 mm 4 mps 759 mmHg 82%
    19:00 +27°C° 0 mm 4 mps 759 mmHg 83%
    20:00 +26°C° 0 mm 4 mps 760 mmHg 84%
    21:00 +26°C° 0 mm 4 mps 760 mmHg 85%
    22:00 +26°C° 0 mm 4 mps 760 mmHg 86%
    23:00 +26°C° 0 mm 4 mps 760 mmHg 86%

    27 July, Thursday

    Time Temperature Precipitation Wind Pressure Humidity
    00:00 +26°C° 0 mm 4 mps 760 mmHg 87%
    01:00 +26°C° 0 mm 4 mps 759 mmHg 87%
    02:00 +26°C° 0 mm 4 mps 759 mmHg 87%
    03:00 +26°C° 0 mm 4 mps 759 mmHg 87%
    04:00 +26°C° 0.1 mm 3 mps 759 mmHg 87%
    05:00 +26°C° 0.1 mm 3 mps 759 mmHg 87%
    06:00 +26°C° 0.1 mm 3 mps 760 mmHg 87%
    07:00 +26°C° 0.1 mm 3 mps 760 mmHg 86%
    08:00 +26°C° 0.1 mm 3 mps 761 mmHg 85%
    09:00 +27°C° 0.1 mm 3 mps 761 mmHg 84%
    10:00 +27°C° 0.1 mm 3 mps 761 mmHg 81%
    11:00 +28°C° 0.1 mm 3 mps 760 mmHg 78%
    12:00 +28°C° 0.1 mm 4 mps 760 mmHg 76%
    13:00 +29°C° 0.1 mm 4 mps 759 mmHg 75%
    14:00 +29°C° 0.1 mm 4 mps 758 mmHg 74%
    15:00 +29°C° 0.1 mm 4 mps 758 mmHg 73%
    16:00 +28°C° 0 mm 4 mps 758 mmHg 76%
    17:00 +28°C° 0 mm 4 mps 758 mmHg 78%
    18:00 +27°C° 0 mm 4 mps 758 mmHg 81%
    19:00 +26°C° 0 mm 4 mps 759 mmHg 83%
    20:00 +26°C° 0 mm 4 mps 760 mmHg 85%
    21:00 +26°C° 0 mm 4 mps 760 mmHg 87%
    22:00 +26°C° 0 mm 4 mps 760 mmHg 87%
    23:00 +25°C° 0 mm 4 mps 760 mmHg 88%
    Show more